Regional Weather Roundup
Issued by NWS Upton, NY

Current Version | Previous Version | Graphics & Text | Print | Product List | Glossary Off
Versions: 1 2 3 4 5 6 7 8 9 10 11 12 13 14 15 16 17 18 19 20 21 22 23 24 25 26 27 28 29 30 31 32 33 34 35 36 37 38 39 40 41 42 43 44 45 46 47 48 49 50

000
ASUS41 KOKX 280808
RWROKX

REGIONAL WEATHER ROUNDUP
NATIONAL WEATHER SERVICE NEW YORK NY
400 AM EDT TUE MAR 28 2017

NOTE: "FAIR" INDICATES FEW OR NO CLOUDS BELOW 12,000 FEET WITH NO
SIGNIFICANT WEATHER AND/OR OBSTRUCTIONS TO VISIBILITY.

NYZ071-072-176-178-NJZ106-104-280900-
NEW YORK CITY METRO AREA

CITY           SKY/WX    TMP DP  RH WIND       PRES   REMARKS
Central Park   CLOUDY    44  43  96 VRB3      29.97F FOG
Wall St Helipt CLOUDY    45  43  93 E9        29.96S
LaGuardia APRT FOG       43  41  93 NE6       29.96S VSB 1/4
Kennedy INTL   CLOUDY    46  44  93 SE5       29.96F
Breezy Point     N/A     41 N/A N/A E8          N/A
Newark/Liberty LGT RAIN  47  46  97 E5        29.95F FOG
Teterboro      LGT RAIN  45  43  93 E5        29.94F
$$

NYZ177-179-078>081-280900-
LONG ISLAND NEW YORK

CITY           SKY/WX    TMP DP  RH WIND       PRES   REMARKS
Jones Beach      N/A     41 N/A N/A E9          N/A
Matinecock PT    N/A     37 N/A N/A E14         N/A  WCI  29
Farmingdale    CLOUDY    44  43  96 E6        29.95F FOG
MacArthur/ISP  LGT RAIN  42  42 100 W6        29.98R FOG
Shirley        CLOUDY    41  41 100 SE3       29.97S FOG
Westhampton    CLOUDY    40  38  93 E3        29.98S FOG
East Hampton   FOG       40  40  98 E5        29.96F VSB 1/2
Montauk        NOT AVBL
$$

NYZ052-065-067-280900-
HUDSON VALLEY

CITY           SKY/WX    TMP DP  RH WIND       PRES   REMARKS
White Plains   LGT RAIN  41  40  96 SE7       29.94F VSB 3/4
Newburgh       LGT RAIN  41  41 100 CALM      29.95F FOG
Montgomery     LGT RAIN  41  39  93 CALM      29.92F FOG
Poughkeepsie   CLOUDY    38  38 100 S3        29.94F FOG
Albany         CLOUDY    41  38  89 N5        29.94F
$$

NJZ001-105-106-008-010-013-015-019>022-104-280900-
NEW JERSEY

CITY           SKY/WX    TMP DP  RH WIND       PRES   REMARKS
Newark/Liberty LGT RAIN  47  46  97 E5        29.95F FOG
Teterboro      LGT RAIN  45  43  93 E5        29.94F
Caldwell       CLOUDY    45  44  97 E3        29.94F FOG
Somerville     LGT RAIN  47  46  97 N3        29.92F FOG
Linden         CLOUDY    47  44  90 CALM      29.95F THUNDER FOG
Sussex         CLOUDY    44  44 100 CALM      29.93F FOG
Andover          N/A     44  43  96 CALM      29.93F
Trenton        CLOUDY    49  48  97 E5        29.92R
Millville      CLOUDY    55  54  96 SE3       29.88F
Atlantic City  CLOUDY    51  47  86 E6        29.90F
Wrightstown    CLOUDY    50  49  98 E7        29.89F
Toms River     TSTM      47  47 100 N6        29.92F FOG
Belmar         CLOUDY    45  45 100 E13       29.94R FOG
$$

PAZ047>061-062-071-280900-
EASTERN PENNSYLVANIA

CITY           SKY/WX    TMP DP  RH WIND       PRES   REMARKS
Philadelphia   CLOUDY    51  50  96 NE7       29.91F FOG
Allentown      CLOUDY    49  45  86 E5        29.91F FOG
Scranton       CLOUDY    47  46  97 CALM      29.88F FOG
$$

CTZ002-004>006-009-010-012-RIZ004-006-007-MAZ004-011-015-280900-
SOUTHERN NEW ENGLAND
 IN CT

CITY           SKY/WX    TMP DP  RH WIND       PRES   REMARKS
Bradley INTL   CLOUDY    38  37  97 SW3       29.98F
Hartford       CLOUDY    39  38  96 CALM      29.99R FOG
Danbury        LGT RAIN  42  42 100 NE3       29.96F FOG
Wtrbury/Oxford CLOUDY    37  36  93 CALM      29.96F VSB<1/4
Bridgeport     CLOUDY    42  39  89 NE8       29.96F
Meriden        FOG       40  38  93 VRB3      29.98F VSB 1
New Haven      CLOUDY    40  39  97 CALM      29.97S
Chester        NOT AVBL
Groton         CLOUDY    41  39  93 E3        29.98F
Wilimantic     CLOUDY    41  40  96 SW5       29.99F FOG

 IN RI

CITY           SKY/WX    TMP DP  RH WIND       PRES   REMARKS
Providence     CLOUDY    40  37  89 NE7       29.99F
Block Island   LGT RAIN  40  39  97 NE7       29.99F VSB 1/4
Westerly       CLOUDY    41  40  96 E3        29.99F
 IN MA

CITY           SKY/WX    TMP DP  RH WIND       PRES   REMARKS
Boston         CLOUDY    36  35  96 N6        30.03S WCI  31
Worcester      FOG       34  33  96 NE7       29.96F VSB 1/4 WCI  28
Westfield      CLOUDY    37  37 100 NW3       29.97F FOG
Provincetown   CLOUDY    37  36  96 N9        30.01F WCI  30
Nantucket      CLOUDY    37  36  96 N10       30.01R FOG     WCI  30
$$

ANZ330-335-338-340-345-350-353-355-280900-
COASTAL MARINE OBSERVATIONS


STATION/POSITION TIME  SKY/WX   TEMP    WIND        PRES    VSBY  WAVE
                                AIR SEA DIR/SP/G                  HT/PER
                 (UTC)          (F)     (DEG/KT/KT) (MB)    (MI)  (FT/S)
NY HARB ENTRANCE 0650            42 42   80/ 14/ 16 1014.3          3/ 6
20 S FIRE ISLAND 0750            42 41   90/ 12/ 14 1013.7          4/ 6
GREAT SOUTH BAY  NOT AVBL
23 SSW MONTAUK P 0650            41 42              1016.1          3/ 6
15 E BARNEGAT LI 0730               44                N/A           3/ 6
HUDSON CANYON    0650            46 44  110/  6/  8 1015.2          3/ 8
KINGS POINT      0742            40 39              1014.0
EXECUTION ROCKS  NOT AVBL
CENTRAL LI SOUND 0730            39      70/  8/ 10   N/A           0
EASTERN LI SOUND NOT AVBL
ROBBINS REEF     0742            45      80/  7/  8 1014.3
$$


>>>>>>>>>>>>>>>>>>>>>>>>>>>> KEY <<<<<<<<<<<<<<<<<<<<<<<<<<<
>                                                          <
>     SKY/WX - Sky Condition/Present Weather               <
>     TMP    - Temperature in Fahrenheit                   <
>     DP     - Dew Point in Fahrenheit                     <
>     RH     - Relative Humidity in Percent                <
>     WIND   - Direction (from) and Speed in MPH           <
>     PRES   - Mean Sea Level Pressure (inches of Hg)      <
>     WCI    - Wind Chill Index                            <
>     VSB    - VISIBILITY IN MILES                         <
>     HX     - HEAT INDEX                                  <
>     TC     - TEMPERATURE IN CELSIUS                      <
>     VRB    - VARIABLE WIND DIRECTION                     <
>                                                          <
>>>>>>>>>>>>>>>>>>>>>>>>>>>> KEY <<<<<<<<<<<<<<<<<<<<<<<<<<<



USA.gov is the U.S. government's official web portal to all federal, state and local government web resources and services.